Regional Weather Roundup
Issued by NWS New Orleans/Baton Rouge, LA

Current Version | Previous Version | Text Only | Print | Product List | Glossary On
Versions: 1 2 3 4 5 6 7 8 9 10 11 12 13 14 15 16 17 18 19 20 21 22 23 24 25 26 27 28 29 30 31 32 33 34 35 36 37 38 39 40 41 42 43 44 45 46 47 48 49 50
000
ASUS44 KLIX 031111
RWRLIX
NEW ORLEANS REGIONAL WEATHER ROUNDUP
NATIONAL WEATHER SERVICE NEW ORLEANS LA
600 AM CDT FRI JUL 03 2015

NOTE: "FAIR" INDICATES FEW OR NO CLOUDS BELOW 12,000 FEET WITH NO
      SIGNIFICANT WEATHER AND/OR OBSTRUCTIONS TO VISIBILITY.
      SKY/WX - SKY CONDITION AND SIGNIFICANT WEATHER.
      TMP - AIR TEMPERATURE.     DP    - DEWPOINT TEMPERATURE.
      RH  - RELATIVE HUMIDITY.   PRES  - PRESSURE.
      HI  - HEAT INDEX.          WCI   - WIND CHILL INDEX.

*  THESE STATIONS ARE NOT NWS OR FAA STATIONS AND ARE NOT UNDER
   NWS QUALITY CONTROL.

LAZ038-040-048-061>063-065>067-069-031200-
SOUTHEAST LOUISIANA

CITY           SKY/WX    TMP DP  RH WIND       PRES   REMARKS
N.O. AUDUBON     N/A     78  78  99 MISG        N/A
N.O. INTL ARPT MOCLDY    79  74  84 S5        30.04R
N.O. LAKEFRONT PTCLDY    82  75  79 S3        30.04S
N.O. DOWNTOWN*   N/A     82  75  78 S3        30.04S
RESERVE*         N/A     78  75  91 CALM      30.04R
SLIDELL        MOCLDY    75  74  96 CALM      30.03S
BATON ROUGE    PTCLDY    76  74  93 CALM      30.03R
BOOTHVILLE     MOCLDY    82  78  88 S5        30.05R
BELLE CHASSE   PTCLDY    75  73  93 CALM      30.04R FOG
BOGALUSA*        N/A     76  72  88 CALM      30.05S
GALLIANO*      PTSUNNY   79  74  84 CALM      30.04S
NEW ROADS*       N/A    N/A N/A N/A CALM      30.03R
GONZALES*        N/A     74  74  99 CALM      30.03R
HAMMOND*       MOCLDY    75  73  94 CALM      30.06R
HOUMA*         MOCLDY    78  76  95 CALM      30.03S
PORT FOURCHON* SUNNY     84  75  74 SW6       30.04S

$$

MSZ070-080>082-031200-
SOUTHERN MISSISSIPPI

CITY           SKY/WX    TMP DP  RH WIND       PRES   REMARKS
MCCOMB         CLOUDY    74  74 100 S3        30.04S FOG
GULFPORT       MOCLDY    80  76  87 CALM      30.04R
BILOXI         MOCLDY    80  78  91 SW6       30.04R
PASCAGOULA     MOCLDY    80  77  90 W3        30.04R

$$

COASTAL OBSERVATIONS
LAKE AND NEARSHORE STATIONS

STATION/POSITION TIME  TEMP    WIND        PRES    WAVE
                       AIR SEA DIR/SP/G            HT/PER
                 (UTC) (F)     (DEG/KT/KT) (MB)    (FT/S)
PASCAGOULA       1000   82     230/ 10/ 13 1016.6
WAVELAND YACHT   1000   80 84  240/  2/  3 1017.4
GRAND ISLE       1000   83 85  200/  5/  8 1016.9
SOUTHWEST PASS   1000   83 82  190/  9/ 11 1017.4
NEW CANAL        1000   80 84     CALM     1016.3
SHELL BEACH      1000   80 84  180/  3/  3 1016.6

OFFSHORE STATIONS

STATION/POSITION TIME  TEMP    WIND        PRES    WAVE
                       AIR SEA DIR/SP/G            HT/PER
                 (UTC) (F)     (DEG/KT/KT) (MB)    (FT/S)
64 S DAUPHIN ISL 1050   83 84  230/ 10/ 12 1017.8    2/ 5

$$




USA.gov is the U.S. government's official web portal to all federal, state and local government web resources and services.